This demonstration page uses our WeatherBlox Daily Observations layout. Learn more.

Left ArrowRight Arrow

41.86663, -103.66717

Hourly Observations for March 20, 2021

Temp ( °F °C ) Dew Point ( °F °C ) Humidity (%) Winds ( mph kmh ) Pressure ( in mb ) Visibility ( mi km ) Precip ( " mm )
1:53 am 01:53 Clear 37 2.8 34 1.1 89 89 E 10 17 30.01 1016 10 16.0934 0 0
2:53 am 02:53 Clear 37 2.8 34 1.1 89 89 E 8 13 30 1016 10 16.0934 0 0
3:53 am 03:53 Clear 36 2.2 33 0.6 89 89 E 13 20 29.97 1015 10 16.0934 0 0
4:53 am 04:53 Clear 37 2.8 33 0.6 86 86 E 14 22 29.95 1014 10 16.0934 0 0
5:53 am 05:53 Clear 36 2.2 33 0.6 89 89 E 9 15 29.96 1015 10 16.0934 0 0
6:53 am 06:53 Clear 34 1.1 34 1.1 100 100 ESE 7 11 29.97 1015 10 16.0934 0 0
7:53 am 07:53 Sunny 35 1.7 35 1.7 100 100 ESE 10 17 29.97 1015 9 14.48406 0 0
8:53 am 08:53 Sunny 36 2.2 36 2.2 100 100 ESE 9 15 29.97 1015 9 14.48406 0 0
9:53 am 09:53 Sunny 39 3.9 38 3.3 96 96 ESE 13 20 29.94 1014 10 16.0934 0 0
10:53 am 10:53 Sunny 43 6.1 41 5 93 93 ESE 7 11 29.93 1014 10 16.0934 0 0
11:53 am 11:53 Sunny 48 8.9 43 6.1 83 83 E 15 24 29.87 1011 10 16.0934 0 0
12:53 pm 12:53 Sunny 53 11.7 50 10 89 89 ESE 13 20 29.83 1010 10 16.0934 0 0
1:53 pm 13:53 Sunny 57 13.9 53 11.7 87 87 SE 10 17 29.79 1009 8 12.87472 0 0
2:53 pm 14:53 Sunny 57 13.9 52 11.1 83 83 SE 15 24 29.77 1008 8 12.87472 0 0
3:53 pm 15:53 Sunny 55 12.8 49 9.4 80 80 SE 12 19 29.75 1007 9 14.48406 0 0
4:53 pm 16:53 Sunny 58 14.4 52 11.1 81 81 SE 12 19 29.71 1006 10 16.0934 0 0
5:53 pm 17:53 Sunny 58 14.4 52 11.1 81 81 Calm 29.68 1005 10 16.0934 0 0
6:53 pm 18:53 Sunny 53 11.7 47 8.3 80 80 Calm 29.68 1005 10 16.0934 0 0
7:53 pm 19:53 Clear 45 7.2 39 3.9 80 80 Calm 29.68 1005 10 16.0934 0 0
8:53 pm 20:53 Clear 41 5 40 4.4 96 96 N 6 9 29.68 1005 9 14.48406 0 0
9:53 pm 21:53 Clear 38 3.3 38 3.3 100 100 NW 10 17 29.69 1005 7 11.26538 0 0
10:53 pm 22:53 Clear 40 4.4 36 2.2 86 86 W 13 20 29.71 1006 7 11.26538 0 0
11:53 pm 23:53 Clear with Mist and Fog 37 2.8 34 1.1 89 89 W 13 20 29.7 1006 6 9.65604 0 0

Powered by AerisWeather